Location: Amherst
(42.5000°N, 72.5000°W)
Time: 14:45:50

ISS - Pass Details

Date: 14 March 2018
Orbit: 403 x 406 km, 51.6° (Epoch: 21 March)

Event Time Altitude Azimuth Distance (km) Brightness Sun altitude
Exits shadow 04:57:50 19° 7° (N) 1,059 -1.5 -23.7°
Maximum altitude 04:57:58 19° 10° (N) 1,057 -1.4 -23.7°
Drops below altitude 10° 05:00:23 10° 58° (ENE) 1,465 0.0 -23.2°
Sets 05:02:53 0° 77° (ENE) 2,323 1.5 -22.8°
